Location: Krakow
(50.0830°N, 19.9170°E)
Time: 07:59:40
(UTC+02:00)

Tiros 1 despin weight - Pass Details

Date: 15 March 2026
Orbit: 555 x 592 km, 48.2° (Epoch: 18 April)

Event Time Altitude Azimuth Distance (km) Brightness Sun altitude
Rises 07:26:48 0° 263° (W) 2,807 ? 13.7°
Reaches altitude 10° 07:29:06 10° 262° (W) 1,902 ? 14.0°
Maximum altitude 07:33:26 70° 179° (S) 619 ? 14.7°
Drops below altitude 10° 07:37:42 10° 96° (E) 1,879 ? 15.3°
Sets 07:39:58 0° 94° (E) 2,770 ? 15.6°
